| time (UTC) | temp F | wind direction | speed knots | gust knots | rain 1hr in | rain 24hr in | rain mn in | humidity % | barometer mb |
| 20260506175955 | 79 | 191 | 8.7 | 17.4 | 0.00 | 0.00 | 0.00 | 69 | 1014.8 |
| 20260506174454 | 78 | 208 | 7.8 | 20.0 | 0.00 | 0.00 | 0.00 | 70 | 1015.0 |
| 20260506171455 | 76 | 198 | 7.8 | 13.9 | 0.00 | 0.00 | 0.00 | 75 | 1015.4 |
| 20260506164454 | 75 | 196 | 8.7 | 17.4 | 0.00 | 0.00 | 0.00 | 74 | 1015.9 |
| 20260506162955 | 75 | 261 | 8.7 | 19.1 | 0.00 | 0.00 | 0.00 | 73 | 1016.3 |
| 20260506161455 | 75 | 217 | 9.6 | 18.2 | 0.00 | 0.00 | 0.00 | 72 | 1016.6 |
| 20260506155957 | 76 | 229 | 8.7 | 16.5 | 0.00 | 0.00 | 0.00 | 72 | 1016.3 |
| 20260506154456 | 76 | 220 | 10.4 | 18.2 | 0.00 | 0.00 | 0.00 | 70 | 1016.7 |
| 20260506151457 | 76 | 222 | 9.6 | 17.4 | 0.00 | 0.00 | 0.00 | 70 | 1016.6 |
| 20260506145957 | 75 | 212 | 9.6 | 18.2 | 0.00 | 0.00 | 0.00 | 71 | 1016.6 |
| 20260506144457 | 75 | 206 | 8.7 | 17.4 | 0.00 | 0.00 | 0.00 | 70 | 1016.4 |
| 20260506142957 | 75 | 193 | 8.7 | 15.6 | 0.00 | 0.00 | 0.00 | 70 | 1016.6 |
| 20260506135957 | 73 | 188 | 5.2 | 10.4 | 0.00 | 0.00 | 0.00 | 75 | 1016.8 |
| 20260506131457 | 72 | 170 | 8.7 | 17.4 | 0.00 | 0.00 | 0.00 | 74 | 1016.8 |
| 20260506125957 | 72 | 200 | 7.8 | 17.4 | 0.00 | 0.00 | 0.00 | 75 | 1016.7 |
| 20260506124457 | 71 | 186 | 7.0 | 14.8 | 0.00 | 0.00 | 0.00 | 75 | 1017.0 |
| 20260506122957 | 71 | 174 | 7.0 | 14.8 | 0.00 | 0.00 | 0.00 | 77 | 1017.0 |
| 20260506121457 | 69 | 210 | 6.1 | 13.9 | 0.00 | 0.00 | 0.00 | 79 | 1016.8 |
| 20260506115957 | 69 | 198 | 7.0 | 13.9 | 0.00 | 0.00 | 0.00 | 80 | 1016.9 |
| 20260506114456 | 68 | 198 | 6.1 | 13.0 | 0.00 | 0.00 | 0.00 | 81 | 1017.0 |
| 20260506112957 | 67 | 200 | 5.2 | 10.4 | 0.00 | 0.00 | 0.00 | 83 | 1016.9 |
| 20260506104456 | 65 | 183 | 4.3 | 12.2 | 0.00 | 0.00 | 0.00 | 85 | 1016.8 |
| 20260506101456 | 65 | 192 | 5.2 | 9.6 | 0.00 | 0.00 | 0.00 | 84 | 1016.6 |
| 20260506091456 | 65 | 225 | 4.3 | 8.7 | 0.00 | 0.00 | 0.00 | 84 | 1017.0 |
| 20260506085957 | 65 | 186 | 4.3 | 8.7 | 0.00 | 0.00 | 0.00 | 84 | 1017.0 |
| 20260506084457 | 65 | 253 | 5.2 | 13.0 | 0.00 | 0.00 | 0.00 | 84 | 1016.9 |
| 20260506082957 | 65 | 186 | 5.2 | 11.3 | 0.00 | 0.00 | 0.00 | 84 | 1016.8 |
| 20260506081456 | 65 | 201 | 4.3 | 8.7 | 0.00 | 0.00 | 0.00 | 84 | 1016.8 |
| 20260506072957 | 65 | 210 | 5.2 | 9.6 | 0.00 | 0.00 | 0.00 | 83 | 1017.1 |
| 20260506071456 | 65 | 194 | 4.3 | 9.6 | 0.00 | 0.00 | 0.00 | 84 | 1017.0 |
| 20260506061456 | 65 | 213 | 5.2 | 10.4 | 0.00 | 0.00 | 0.00 | 84 | 1017.6 |
| 20260506044456 | 66 | 223 | 6.1 | 14.8 | 0.00 | 0.00 | 0.00 | 85 | 1017.8 |
| 20260506042956 | 66 | 200 | 6.1 | 13.9 | 0.00 | 0.00 | 0.00 | 85 | 1018.0 |
| 20260506041456 | 66 | 167 | 5.2 | 11.3 | 0.00 | 0.00 | 0.00 | 85 | 1018.1 |
| 20260506035956 | 66 | 221 | 5.2 | 10.4 | 0.00 | 0.00 | 0.00 | 84 | 1018.1 |
| 20260506032955 | 66 | 184 | 6.1 | 16.5 | 0.00 | 0.00 | 0.00 | 83 | 1018.1 |
| 20260506031455 | 67 | 263 | 7.0 | 13.0 | 0.00 | 0.00 | 0.00 | 82 | 1018.2 |
| 20260506024455 | 67 | 178 | 7.0 | 13.0 | 0.00 | 0.00 | 0.00 | 82 | 1018.0 |
| 20260506022955 | 67 | 148 | 6.1 | 12.2 | 0.00 | 0.00 | 0.00 | 82 | 1018.0 |
| 20260506021455 | 67 | 183 | 7.0 | 14.8 | 0.00 | 0.00 | 0.00 | 81 | 1018.5 |
| 20260506015955 | 67 | 213 | 7.8 | 13.9 | 0.00 | 0.00 | 0.00 | 81 | 1018.5 |
| 20260506014455 | 67 | 241 | 7.8 | 14.8 | 0.00 | 0.00 | 0.00 | 82 | 1018.5 |
| 20260506012955 | 67 | 218 | 7.8 | 13.9 | 0.00 | 0.00 | 0.00 | 82 | 1018.4 |
| 20260506005955 | 67 | 196 | 7.0 | 14.8 | 0.00 | 0.00 | 0.00 | 83 | 1018.1 |
| 20260506004455 | 68 | 213 | 7.0 | 13.9 | 0.00 | 0.00 | 0.00 | 81 | 1017.9 |
| 20260506002955 | 68 | 246 | 7.8 | 15.6 | 0.00 | 0.00 | 0.00 | 79 | 1017.7 |
| 20260506001455 | 68 | 234 | 7.0 | 13.0 | 0.00 | 0.00 | 0.00 | 77 | 1017.5 |
| 20260505235956 | 69 | 187 | 7.0 | 13.9 | 0.00 | 0.00 | 0.00 | 76 | 1017.5 |
| 20260505234455 | 69 | 220 | 8.7 | 15.6 | 0.00 | 0.00 | 0.00 | 75 | 1017.6 |
| 20260505232957 | 70 | 211 | 8.7 | 16.5 | 0.00 | 0.00 | 0.00 | 73 | 1017.4 |
| 20260505231455 | 70 | 204 | 9.6 | 17.4 | 0.00 | 0.00 | 0.00 | 70 | 1017.3 |
| 20260505225955 | 70 | 197 | 7.8 | 18.2 | 0.00 | 0.00 | 0.00 | 71 | 1017.3 |
| 20260505224455 | 71 | 219 | 7.8 | 17.4 | 0.00 | 0.00 | 0.00 | 70 | 1017.3 |
| 20260505222957 | 72 | 234 | 9.6 | 18.2 | 0.00 | 0.00 | 0.00 | 67 | 1017.3 |
| 20260505215955 | 74 | 232 | 9.6 | 19.1 | 0.00 | 0.00 | 0.00 | 64 | 1017.3 |
| 20260505214455 | 74 | 220 | 9.6 | 20.0 | 0.00 | 0.00 | 0.00 | 63 | 1017.3 |
| 20260505212955 | 75 | 234 | 10.4 | 16.5 | 0.00 | 0.00 | 0.00 | 61 | 1017.1 |
| 20260505211455 | 75 | 170 | 9.6 | 18.2 | 0.00 | 0.00 | 0.00 | 59 | 1017.2 |
| 20260505205955 | 76 | 179 | 10.4 | 19.1 | 0.00 | 0.00 | 0.00 | 59 | 1017.4 |
| 20260505202955 | 76 | 242 | 11.3 | 20.9 | 0.00 | 0.00 | 0.00 | 59 | 1017.5 |
| 20260505201455 | 76 | 223 | 11.3 | 17.4 | 0.00 | 0.00 | 0.00 | 58 | 1017.6 |
| 20260505195955 | 76 | 188 | 10.4 | 19.1 | 0.00 | 0.00 | 0.00 | 57 | 1017.7 |
| 20260505194455 | 77 | 167 | 10.4 | 20.0 | 0.00 | 0.00 | 0.00 | 58 | 1017.7 |
| 20260505192955 | 77 | 203 | 9.6 | 21.7 | 0.00 | 0.00 | 0.00 | 62 | 1018.0 |
| 20260505191455 | 77 | 207 | 8.7 | 16.5 | 0.00 | 0.00 | 0.00 | 61 | 1018.1 |
| 20260505185955 | 77 | 236 | 7.8 | 14.8 | 0.00 | 0.00 | 0.00 | 62 | 1018.2 |
| 20260505182955 | 77 | 208 | 8.7 | 17.4 | 0.00 | 0.00 | 0.00 | 62 | 1018.4 |
| 20260505181455 | 78 | 209 | 7.8 | 14.8 | 0.00 | 0.00 | 0.00 | 60 | 1018.5 |